Hourly Data Report for January 02, 2004

All times are specified in Local Standard Time (LST). Add 1 hour to adjust for Daylight Saving Time where and when it is observed.

SHERBROOKE A
QUEBEC

45°26'00.000" N
71°41'00.000" W
241.40 m
7028124
71610
YSC

Download Data

Hourly Data (January 2004)
Hourly Data Report for January 2, 2004
TIME Temp Definition
°C
Dew Point Temp Definition
°C
Rel Hum Definition
%
Wind Dir Definition
10's deg

Wind Spd Definition
km/h
Visibility Definition
km
Stn Press Definition
kPa
Hmdx Definition


Wind Chill Definition


Weather Definition


00:00 -6.7 -9.9 78   0 15.0 99.63     Snow
01:00 -7.1 -9.9 80   0 15.0 99.61      
02:00 -7.3 -9.8 82 7 6 15.0 99.59   -10  
03:00 -7.8 -10.3 82 6 7 15.0 99.51   -11  
04:00 -8.5 -10.7 84   0 15.0 99.49      
05:00 -9.9 -11.8 86 6 4 15.0 99.43   -12  
06:00 -9.8 -12.0 84 5 9 15.0 99.37   -15  
07:00 -9.7 -12.0 83 7 6 15.0 99.32   -13  
08:00 -9.4 -11.9 82 6 6 24.1 99.40   -13 Cloudy
09:00 -9.5 -12.0 82 7 11 24.1 99.34   -15 Cloudy
10:00 -9.0 -11.7 81 3 4 16.1 99.37   -11 Snow
11:00 -8.8 -11.0 84 5 9 0.6 99.25   -13 Moderate Snow
12:00 -8.5 -10.7 84 7 11 0.8 99.14   -14 Moderate Snow
13:00 -7.6 -9.9 84 7 9 1.2 99.07   -12 Snow
14:00 -6.8 -9.2 83 6 7 24.1 99.04   -10 Snow
15:00 -6.5 -8.8 84 5 9 24.1 99.07   -11 Snow
16:00 -6.6 -8.8 84 5 11 24.1 99.04   -12 Snow Grains
17:00 -6.8 -9.1 84 5 9 24.1 99.04   -11 Cloudy
18:00 -6.7 -9.0 84 6 13 15.0 99.02   -12  
19:00 -6.5 -8.8 84 6 7 15.0 99.03   -10  
20:00 -6.3 -8.5 84 8 6 15.0 99.02   -9  
21:00 -5.9 -8.2 84 6 4 15.0 98.99   -8  
22:00 -5.7 -7.9 84 6 11 15.0 98.97   -10  
23:00 -5.4 -7.7 84 8 4 15.0 99.00   -7  

Notes on Data Quality.

Legend

  • E = Estimated
  • M = Missing
  • NA = Not Available
Date modified: